Location: Franzen
(48.6167°N, 15.3833°E)
Time: 14:18:33
(UTC+00:00)

Transit 2A Rocket - Pass Details

Date: 05 August 2021
Orbit: 586 x 916 km, 66.7° (Epoch: 23 September)

Event Time Altitude Azimuth Distance (km) Brightness Sun altitude
Rises 19:38:35 0° 326° (NW) 3,233 10.0 -10.3°
Reaches altitude 10° 19:40:59 10° 332° (NNW) 2,355 8.8 -10.6°
Maximum altitude 19:46:17 49° 47° (NE) 1,075 5.7 -11.2°
Enters shadow 19:51:00 15° 119° (ESE) 2,194 6.7 -11.8°
